Time,TemperatureF,DewpointF,PressureIn,WindDirection,WindDirectionDegrees,WindSpeedMPH,WindSpeedGustMPH,Humidity,HourlyPrecipIn,Conditions,Clouds,dailyrainin,SolarRadiationWatts/m^2,SoftwareType,DateUTC
2014-02-14 00:00:00,20.5,-6.7,29.59,SSE,156,8.0,-999.0,29,0.00,,,0.00,0,WeatherHawk,2014-02-14 05:00:00,
2014-02-14 00:05:00,20.4,-8.2,29.59,SE,136,7.0,-999.0,27,0.00,,,0.00,0,WeatherHawk,2014-02-14 05:05:00,
2014-02-14 00:10:00,20.4,-6.0,29.60,SSE,153,7.0,-999.0,30,0.00,,,0.00,0,WeatherHawk,2014-02-14 05:10:00,
2014-02-14 00:15:00,20.6,-5.9,29.60,South,184,7.0,-999.0,30,0.00,,,0.00,1,WeatherHawk,2014-02-14 05:15:00,
2014-02-14 00:20:00,20.5,-5.3,29.59,SSE,166,8.0,-999.0,31,0.00,,,0.00,0,WeatherHawk,2014-02-14 05:20:00,
2014-02-14 00:25:00,20.3,-3.5,29.59,South,170,8.0,-999.0,34,0.00,,,0.00,0,WeatherHawk,2014-02-14 05:25:00,
2014-02-14 00:29:00,20.4,-4.1,29.59,South,181,6.0,-999.0,33,0.00,,,0.00,0,WeatherHawk,2014-02-14 05:29:00,
2014-02-14 00:35:00,20.3,-4.8,29.59,SSE,151,6.0,-999.0,32,0.00,,,0.00,0,WeatherHawk,2014-02-14 05:35:00,
2014-02-14 00:40:00,20.3,-3.5,29.59,SSE,162,7.0,-999.0,34,0.00,,,0.00,0,WeatherHawk,2014-02-14 05:40:00,
2014-02-14 00:45:00,20.3,-5.5,29.58,South,170,7.0,-999.0,31,0.00,,,0.00,0,WeatherHawk,2014-02-14 05:45:00,
2014-02-14 00:50:00,20.3,-5.4,29.58,South,174,8.0,-999.0,31,0.00,,,0.00,1,WeatherHawk,2014-02-14 05:50:00,
2014-02-14 00:55:00,20.3,-6.1,29.58,SSE,162,5.0,-999.0,30,0.00,,,0.00,0,WeatherHawk,2014-02-14 05:55:00,
2014-02-14 01:00:00,20.3,-4.8,29.58,SSE,164,6.0,-999.0,32,0.00,,,0.00,0,WeatherHawk,2014-02-14 06:00:00,
2014-02-14 01:05:00,20.3,-3.5,29.58,SSE,167,6.0,-999.0,34,0.00,,,0.00,0,WeatherHawk,2014-02-14 06:05:00,
2014-02-14 01:10:00,20.2,-3.1,29.57,SSE,149,4.0,-999.0,35,0.00,,,0.00,0,WeatherHawk,2014-02-14 06:10:00,
2014-02-14 01:20:00,20.1,-2.5,29.57,SE,129,7.0,-999.0,36,0.00,,,0.00,0,WeatherHawk,2014-02-14 06:20:00,
2014-02-14 01:29:00,20.3,-1.2,29.56,SE,143,5.0,-999.0,38,0.00,,,0.00,0,WeatherHawk,2014-02-14 06:29:00,
2014-02-14 01:34:00,20.3,-1.3,29.56,SSE,162,5.0,-999.0,38,0.00,,,0.00,0,WeatherHawk,2014-02-14 06:34:00,
2014-02-14 01:39:00,20.3,-0.1,29.56,South,171,3.0,-999.0,40,0.00,,,0.00,0,WeatherHawk,2014-02-14 06:39:00,
2014-02-14 01:44:00,20.3,-0.1,29.56,South,185,7.0,-999.0,40,0.00,,,0.00,0,WeatherHawk,2014-02-14 06:44:00,
2014-02-14 01:49:00,22.2,4.1,29.56,SSE,165,5.0,-999.0,45,0.00,,,0.00,0,WeatherHawk,2014-02-14 06:49:00,
2014-02-14 01:54:00,20.3,0.9,29.56,SE,129,7.0,-999.0,42,0.00,,,0.00,0,WeatherHawk,2014-02-14 06:54:00,
2014-02-14 02:00:00,21.3,1.8,29.55,SSW,204,1.0,-999.0,42,0.00,,,0.00,0,WeatherHawk,2014-02-14 07:00:00,
2014-02-14 02:05:00,20.4,3.0,29.55,SSE,157,3.0,-999.0,46,0.00,,,0.00,0,WeatherHawk,2014-02-14 07:05:00,
2014-02-14 02:15:00,21.0,3.0,29.55,South,176,4.0,-999.0,45,0.00,,,0.00,0,WeatherHawk,2014-02-14 07:15:00,
2014-02-14 02:20:00,24.1,7.8,29.55,South,169,4.0,-999.0,49,0.00,,,0.00,0,WeatherHawk,2014-02-14 07:20:00,
2014-02-14 02:25:00,21.7,3.7,29.56,South,190,1.0,-999.0,45,0.00,,,0.00,0,WeatherHawk,2014-02-14 07:25:00,
2014-02-14 02:43:00,23.0,3.9,29.56,SSE,167,3.0,-999.0,43,0.00,,,0.00,0,WeatherHawk,2014-02-14 07:43:00,
2014-02-14 02:50:00,23.9,5.2,29.54,SSE,164,4.0,-999.0,44,0.00,,,0.00,1,WeatherHawk,2014-02-14 07:50:00,
2014-02-14 03:00:00,21.9,2.9,29.55,South,183,0.0,-999.0,43,0.00,,,0.00,0,WeatherHawk,2014-02-14 08:00:00,
2014-02-14 09:15:00,25.4,15.0,29.62,WSW,253,9.0,-999.0,64,0.00,,,0.00,47,WeatherHawk,2014-02-14 14:15:00,
2014-02-14 09:25:00,25.5,14.0,29.63,West,267,4.0,-999.0,61,0.00,,,0.00,47,WeatherHawk,2014-02-14 14:25:00,
2014-02-14 09:35:00,25.5,13.6,29.64,WSW,241,5.0,-999.0,60,0.00,,,0.00,55,WeatherHawk,2014-02-14 14:35:00,
2014-02-14 09:40:00,25.5,12.9,29.64,WSW,252,6.0,-999.0,58,0.00,,,0.00,65,WeatherHawk,2014-02-14 14:40:00,
2014-02-14 09:49:00,25.6,12.9,29.65,SW,232,7.0,-999.0,58,0.00,,,0.00,74,WeatherHawk,2014-02-14 14:49:00,
2014-02-14 09:55:00,25.5,12.8,29.65,West,266,5.0,-999.0,58,0.00,,,0.00,94,WeatherHawk,2014-02-14 14:55:00,
2014-02-14 10:05:00,25.8,12.3,29.65,WSW,248,4.0,-999.0,56,0.00,,,0.00,130,WeatherHawk,2014-02-14 15:05:00,
2014-02-14 10:15:00,25.6,10.5,29.65,SW,229,7.0,-999.0,52,0.00,,,0.00,137,WeatherHawk,2014-02-14 15:15:00,
2014-02-14 10:20:00,26.0,10.4,29.66,SSW,203,7.0,-999.0,51,0.00,,,0.00,141,WeatherHawk,2014-02-14 15:20:00,
2014-02-14 10:29:00,25.5,8.1,29.66,WSW,248,7.0,-999.0,47,0.00,,,0.00,111,WeatherHawk,2014-02-14 15:29:00,
2014-02-14 10:34:00,25.7,8.8,29.66,SSW,212,8.0,-999.0,48,0.00,,,0.00,106,WeatherHawk,2014-02-14 15:34:00,
2014-02-14 10:40:00,25.6,7.8,29.66,WSW,252,5.0,-999.0,46,0.00,,,0.00,209,WeatherHawk,2014-02-14 15:40:00,
2014-02-14 10:45:00,26.0,5.6,29.66,WNW,285,5.0,-999.0,41,0.00,,,0.00,222,WeatherHawk,2014-02-14 15:45:00,
2014-02-14 10:50:00,26.1,2.9,29.67,SW,223,10.0,-999.0,36,0.00,,,0.00,253,WeatherHawk,2014-02-14 15:50:00,
2014-02-14 10:55:00,26.1,1.6,29.67,SSW,206,8.0,-999.0,34,0.00,,,0.00,258,WeatherHawk,2014-02-14 15:55:00,
2014-02-14 11:00:00,26.0,-0.4,29.67,WNW,290,7.0,-999.0,31,0.00,,,0.00,273,WeatherHawk,2014-02-14 16:00:00,
2014-02-14 11:05:00,26.1,-1.0,29.68,WSW,256,8.0,-999.0,30,0.00,,,0.00,274,WeatherHawk,2014-02-14 16:05:00,
2014-02-14 11:12:00,26.1,-2.5,29.67,SW,221,10.0,-999.0,28,0.00,,,0.00,280,WeatherHawk,2014-02-14 16:12:00,
2014-02-14 11:20:00,25.9,-8.6,29.69,WSW,252,8.0,-999.0,21,0.00,,,0.00,241,WeatherHawk,2014-02-14 16:20:00,
2014-02-14 11:30:00,26.5,-2.9,29.70,WSW,253,5.0,-999.0,27,0.00,,,0.00,209,WeatherHawk,2014-02-14 16:30:00,
2014-02-14 11:35:00,26.7,-3.5,29.70,SW,229,6.0,-999.0,26,0.00,,,0.00,211,WeatherHawk,2014-02-14 16:35:00,
2014-02-14 11:40:00,26.2,-4.7,29.69,SSW,211,6.0,-999.0,25,0.00,,,0.00,170,WeatherHawk,2014-02-14 16:40:00,
2014-02-14 11:50:00,25.9,-11.7,29.71,NW,314,6.0,-999.0,18,0.00,,,0.00,267,WeatherHawk,2014-02-14 16:50:00,
2014-02-14 11:55:00,25.8,-10.7,29.71,WSW,252,11.0,-999.0,19,0.00,,,0.00,295,WeatherHawk,2014-02-14 16:55:00,
2014-02-14 12:05:00,26.4,-12.5,29.71,SW,236,11.0,-999.0,17,0.00,,,0.00,303,WeatherHawk,2014-02-14 17:05:00,
2014-02-14 12:10:00,26.2,-5.6,29.70,West,272,6.0,-999.0,24,0.00,,,0.00,305,WeatherHawk,2014-02-14 17:10:00,
2014-02-14 12:15:00,26.4,-8.2,29.69,WNW,285,4.0,-999.0,21,0.00,,,0.00,241,WeatherHawk,2014-02-14 17:15:00,
2014-02-14 12:25:00,25.5,-10.0,29.70,SW,229,13.0,-999.0,20,0.00,,,0.00,153,WeatherHawk,2014-02-14 17:25:00,
2014-02-14 12:30:00,25.7,-10.7,29.69,West,274,2.0,-999.0,19,0.00,,,0.00,113,WeatherHawk,2014-02-14 17:30:00,
2014-02-14 12:40:00,25.1,0.7,29.70,SW,232,8.0,-999.0,34,0.00,,,0.00,226,WeatherHawk,2014-02-14 17:40:00,
2014-02-14 12:50:00,25.4,1.6,29.70,SW,224,8.0,-999.0,35,0.00,,,0.00,312,WeatherHawk,2014-02-14 17:50:00,
2014-02-14 12:55:00,25.5,1.7,29.70,SSW,213,7.0,-999.0,35,0.00,,,0.00,264,WeatherHawk,2014-02-14 17:55:00,
2014-02-14 13:00:00,25.7,3.1,29.71,SW,218,5.0,-999.0,37,0.00,,,0.00,193,WeatherHawk,2014-02-14 18:00:00,
2014-02-14 13:05:00,24.0,1.0,29.71,WNW,287,12.0,-999.0,36,0.00,,,0.00,232,WeatherHawk,2014-02-14 18:05:00,
2014-02-14 13:15:00,25.1,-5.7,29.70,West,259,7.0,-999.0,25,0.00,,,0.00,351,WeatherHawk,2014-02-14 18:15:00,
2014-02-14 13:25:00,24.9,-5.1,29.70,West,265,6.0,-999.0,26,0.00,,,0.00,134,WeatherHawk,2014-02-14 18:25:00,
2014-02-14 13:35:00,24.5,-8.9,29.71,NW,324,9.0,-999.0,22,0.00,,,0.00,171,WeatherHawk,2014-02-14 18:35:00,
2014-02-14 13:45:00,24.6,-10.7,29.72,West,272,7.0,-999.0,20,0.00,,,0.00,222,WeatherHawk,2014-02-14 18:45:00,
2014-02-14 13:55:00,24.9,-8.5,29.72,NE,41,6.0,-999.0,22,0.00,,,0.00,196,WeatherHawk,2014-02-14 18:55:00,
2014-02-14 14:00:00,24.6,-9.7,29.72,WNW,291,6.0,-999.0,21,0.00,,,0.00,161,WeatherHawk,2014-02-14 19:00:00,
2014-02-14 14:05:00,24.9,-11.5,29.72,WSW,257,8.0,-999.0,19,0.00,,,0.00,252,WeatherHawk,2014-02-14 19:05:00,
2014-02-14 17:10:00,23.5,-7.9,29.78,SW,229,5.0,-999.0,24,0.00,,,0.00,72,WeatherHawk,2014-02-14 22:10:00,
2014-02-14 17:15:00,23.3,-5.0,29.78,West,260,7.0,-999.0,28,0.00,,,0.00,60,WeatherHawk,2014-02-14 22:15:00,
2014-02-14 17:20:00,23.2,-10.9,29.78,WSW,257,4.0,-999.0,21,0.00,,,0.00,58,WeatherHawk,2014-02-14 22:20:00,
2014-02-14 17:30:00,23.2,-9.1,29.79,West,273,6.0,-999.0,23,0.00,,,0.00,37,WeatherHawk,2014-02-14 22:30:00,
2014-02-14 17:40:00,23.1,-4.3,29.79,WNW,296,4.0,-999.0,29,0.00,,,0.00,22,WeatherHawk,2014-02-14 22:40:00,
2014-02-14 17:45:00,23.0,-3.8,29.80,NW,316,4.0,-999.0,30,0.00,,,0.00,15,WeatherHawk,2014-02-14 22:45:00,
2014-02-14 17:55:00,22.8,-2.6,29.79,NNW,327,4.0,-999.0,32,0.00,,,0.00,9,WeatherHawk,2014-02-14 22:55:00,
2014-02-14 18:00:00,22.7,-2.7,29.78,WSW,256,3.0,-999.0,32,0.00,,,0.00,5,WeatherHawk,2014-02-14 23:00:00,
2014-02-14 18:05:00,22.7,-3.3,29.79,SSW,205,5.0,-999.0,31,0.00,,,0.00,3,WeatherHawk,2014-02-14 23:05:00,
2014-02-14 18:15:00,22.5,-2.2,29.79,NW,311,4.0,-999.0,33,0.00,,,0.00,0,WeatherHawk,2014-02-14 23:15:00,
2014-02-14 18:25:00,22.5,-3.5,29.81,WNW,287,5.0,-999.0,31,0.00,,,0.00,0,WeatherHawk,2014-02-14 23:25:00,
2014-02-14 18:30:00,22.3,-3.0,29.80,WSW,254,4.0,-999.0,32,0.00,,,0.00,0,WeatherHawk,2014-02-14 23:30:00,
2014-02-14 18:40:00,22.3,-2.4,29.81,West,265,6.0,-999.0,33,0.00,,,0.00,0,WeatherHawk,2014-02-14 23:40:00,
2014-02-14 18:50:00,21.6,-1.2,29.80,WSW,241,3.0,-999.0,36,0.00,,,0.00,0,WeatherHawk,2014-02-14 23:50:00,
2014-02-14 19:00:00,21.4,0.9,29.82,WSW,255,3.0,-999.0,40,0.00,,,0.00,0,WeatherHawk,2014-02-15 00:00:00,
2014-02-14 19:05:00,21.5,1.0,29.82,West,262,2.0,-999.0,40,0.00,,,0.00,0,WeatherHawk,2014-02-15 00:05:00,
2014-02-14 19:15:00,20.7,0.8,29.83,WSW,238,0.0,-999.0,41,0.00,,,0.00,0,WeatherHawk,2014-02-15 00:15:00,
2014-02-14 19:26:00,20.5,2.6,29.83,WSW,245,0.0,-999.0,45,0.00,,,0.00,0,WeatherHawk,2014-02-15 00:26:00,
2014-02-14 19:35:00,21.0,2.6,29.84,WSW,255,0.0,-999.0,44,0.00,,,0.00,1,WeatherHawk,2014-02-15 00:35:00,
2014-02-14 19:40:00,21.2,2.2,29.83,SW,230,2.0,-999.0,43,0.00,,,0.00,1,WeatherHawk,2014-02-15 00:40:00,
2014-02-14 19:50:00,21.5,0.4,29.84,WSW,247,0.0,-999.0,39,0.00,,,0.00,0,WeatherHawk,2014-02-15 00:50:00,
2014-02-14 19:55:00,21.5,-0.1,29.83,SW,228,3.0,-999.0,38,0.00,,,0.00,0,WeatherHawk,2014-02-15 00:55:00,
2014-02-14 20:05:00,21.5,-1.9,29.83,SW,227,6.0,-999.0,35,0.00,,,0.00,0,WeatherHawk,2014-02-15 01:05:00,
2014-02-14 20:15:00,21.5,-1.8,29.84,WSW,249,3.0,-999.0,35,0.00,,,0.00,0,WeatherHawk,2014-02-15 01:15:00,
2014-02-14 20:22:00,21.5,-2.4,29.84,SW,225,4.0,-999.0,34,0.00,,,0.00,0,WeatherHawk,2014-02-15 01:22:00,
2014-02-14 20:30:00,21.4,-0.8,29.84,WSW,245,4.0,-999.0,37,0.00,,,0.00,0,WeatherHawk,2014-02-15 01:30:00,
2014-02-14 20:40:00,21.4,-1.4,29.84,SW,214,5.0,-999.0,36,0.00,,,0.00,0,WeatherHawk,2014-02-15 01:40:00,
2014-02-14 20:45:00,21.5,-1.3,29.85,SW,217,4.0,-999.0,36,0.00,,,0.00,0,WeatherHawk,2014-02-15 01:45:00,
2014-02-14 20:55:00,21.6,0.5,29.85,WSW,257,3.0,-999.0,39,0.00,,,0.00,0,WeatherHawk,2014-02-15 01:55:00,
2014-02-14 21:04:00,21.5,0.4,29.85,NW,309,4.0,-999.0,39,0.00,,,0.00,0,WeatherHawk,2014-02-15 02:04:00,
2014-02-14 21:10:00,21.5,-0.2,29.86,West,268,4.0,-999.0,38,0.00,,,0.00,0,WeatherHawk,2014-02-15 02:10:00,
2014-02-14 21:15:00,21.5,1.0,29.86,NW,320,3.0,-999.0,40,0.00,,,0.00,0,WeatherHawk,2014-02-15 02:15:00,
2014-02-14 21:20:00,21.5,1.0,29.85,WNW,289,5.0,-999.0,40,0.00,,,0.00,0,WeatherHawk,2014-02-15 02:20:00,
2014-02-14 21:30:00,21.4,2.5,29.85,WNW,284,0.0,-999.0,43,0.00,,,0.00,0,WeatherHawk,2014-02-15 02:30:00,
2014-02-14 21:36:00,21.4,2.0,29.86,WNW,292,1.0,-999.0,42,0.00,,,0.00,0,WeatherHawk,2014-02-15 02:36:00,
2014-02-14 21:46:00,21.5,2.0,29.86,WNW,299,3.0,-999.0,42,0.00,,,0.00,0,WeatherHawk,2014-02-15 02:46:00,
2014-02-14 21:55:00,21.6,2.6,29.86,WNW,301,3.0,-999.0,43,0.00,,,0.00,0,WeatherHawk,2014-02-15 02:55:00,
2014-02-14 22:13:00,21.4,2.4,29.86,NW,322,5.0,-999.0,43,0.00,,,0.00,0,WeatherHawk,2014-02-15 03:13:00,
2014-02-14 22:20:00,21.1,4.1,29.87,West,281,6.0,-999.0,47,0.00,,,0.00,0,WeatherHawk,2014-02-15 03:20:00,
2014-02-14 22:30:00,21.1,5.4,29.88,North,0,5.0,-999.0,50,0.00,,,0.00,0,WeatherHawk,2014-02-15 03:30:00,
2014-02-14 22:40:00,20.9,5.6,29.88,WNW,292,3.0,-999.0,51,0.00,,,0.00,0,WeatherHawk,2014-02-15 03:40:00,
2014-02-14 22:45:00,20.9,6.5,29.88,NW,325,4.0,-999.0,53,0.00,,,0.00,1,WeatherHawk,2014-02-15 03:45:00,
2014-02-14 22:50:00,20.9,6.9,29.88,NE,38,3.0,-999.0,54,0.00,,,0.00,0,WeatherHawk,2014-02-15 03:50:00,
2014-02-14 22:55:00,20.8,7.2,29.89,WNW,286,8.0,-999.0,55,0.00,,,0.00,0,WeatherHawk,2014-02-15 03:55:00,
2014-02-14 23:00:00,20.8,7.2,29.89,NW,313,7.0,-999.0,55,0.00,,,0.00,0,WeatherHawk,2014-02-15 04:00:00,
2014-02-14 23:10:00,20.9,7.3,29.88,NW,314,12.0,-999.0,55,0.00,,,0.00,0,WeatherHawk,2014-02-15 04:10:00,
2014-02-14 23:15:00,20.7,7.5,29.88,West,263,6.0,-999.0,56,0.00,,,0.00,0,WeatherHawk,2014-02-15 04:15:00,
2014-02-14 23:20:00,20.5,7.7,29.88,NW,323,10.0,-999.0,57,0.00,,,0.00,0,WeatherHawk,2014-02-15 04:20:00,
2014-02-14 23:25:00,20.6,7.4,29.89,North,6,6.0,-999.0,56,0.00,,,0.00,0,WeatherHawk,2014-02-15 04:25:00,
2014-02-14 23:30:00,20.5,7.3,29.89,WNW,295,8.0,-999.0,56,0.00,,,0.00,0,WeatherHawk,2014-02-15 04:30:00,
2014-02-14 23:35:00,20.4,7.3,29.88,NNW,344,10.0,-999.0,56,0.00,,,0.00,0,WeatherHawk,2014-02-15 04:35:00,
2014-02-14 23:40:00,20.4,7.2,29.89,NNW,345,11.0,-999.0,56,0.00,,,0.00,0,WeatherHawk,2014-02-15 04:40:00,
2014-02-14 23:45:00,20.4,6.8,29.89,NW,326,12.0,-999.0,55,0.00,,,0.00,0,WeatherHawk,2014-02-15 04:45:00,
2014-02-14 23:50:00,20.2,5.9,29.89,NW,317,9.0,-999.0,53,0.00,,,0.00,0,WeatherHawk,2014-02-15 04:50:00,